User: anonymous   Login
Location: Unspecified
(0.0000°N, 0.0000°E)
Time: 14:36:59
(UTC+00:00)
Language:

COMSATBw-2 - Orbit

View from above orbital plane
View from above orbital plane
View from above satellite
View from above satellite

Ground track
Ground track

The orbit data is extracted from the following two-line orbital elements,

1 36582U 10021B   17352.21488608  .00000095  00000-0  00000+0 0  9996
2 36582   0.0379 304.0578 0001943 337.5351 255.9930  1.00269357 27876
Epoch (UTC): 18 December 2017 05:09:26
Eccentricity: 0.0001943
inclination: 0.0379°
perigee height: 35779 km
apogee height: 35795 km
right ascension of ascending node: 304.0578°
argument of perigee: 337.5351°
revolutions per day: 1.00269357
mean anomaly at epoch: 255.9930°
orbit number at epoch: 2787

The dashed part of the orbit path shows where the satellite is in the earth's shadow,  

DLR